Tracking 17558 objects as of 10-February-2016
HD Live streaming from Space Station
objects crossing your sky now

ATLAS CENTAUR DEB

Track ATLAS CENTAUR DEB now!


NORAD ID: 25253
Int'l Code: 1978-068C
Perigee: 844.1 km
Apogee: 35,615.2 km
Inclination: 21.4 °
Period: 640.0 minutes
Semi major axis: 24600 km
RCS: 0.1092 m2 (medium)
Launch date: June 29, 1978
Source: United States (US)
Launch site: AIR FORCE EASTERN TEST RANGE (AFETR)

Note: This is SATELLITE DEBRIS
Your satellite tracking list
Your tracking list is empty





NASA's NSSDC Master Catalog

Two Line Element Set (TLE):
1 25253U 78068C   16039.52264338 +.00000019 +00000-0 -10991-2 0  9991
2 25253 021.4043 216.3201 7067113 036.3769 359.6794 02.2507314152811
Source of the keplerian elements: AFSPC

N2YO: 460